Погода в Огузере

Россия / Республика Дагестан     44°02′57″N   47°03′39″E
темп.,
°C
ветер,
м/с
пор.,
м/с
влажн.,
%
обл.,
%
осадки,
мм/ч
давл.,
гПа
погр.,
м
25 июня, сб
сб2500:00+19юв3474100 0.0 100959
03:00+18юв227753 0.0 100921
06:00+22вюв375997 0.0 1010357
09:00+26в6740100 0.0 10101368
12:00+30в673199 0.0 10091766
15:00+29в7738100 0.0 10081637
18:00+27в5643100 0.0 10091080
21:00+21всв1273100 0.1 100912
26 июня, вс
вс2600:00+21зсз0075100 0.0 100811
03:00+21ссз3471100 0.0 100780
06:00+22зсз2360100 0.0 1008131
09:00+29с333766 0.0 10081266
12:00+31св6630100 0.0 10061539
15:00+32св562999 0.0 10061484
18:00+29ссв444295 0.1 1006917
21:00+23с227475 0.1 100719
27 июня, пн
пн2700:00+22зсз51073100 0.1 1008282
03:00+21з5978100 0.9 1008198
06:00+25ссв27706 0.0 1009619
09:00+29всв775117 0.0 10091358
12:00+30всв88430 0.0 10101379
15:00+29св89455 0.0 10101125
18:00+26ссв79505 0.0 1010673
21:00+23с5106033 0.0 1011350
28 июня, вт
вт2800:00+22с486029 0.0 1010224
03:00+22с3566100 0.0 100990
06:00+25ссв595699 0.0 1009690
09:00+29ссв77345 0.0 10091272
12:00+30ссв87320 0.0 10091488
15:00+30ссв78320 0.0 10091354
18:00+28св57340 0.0 1010771
21:00+21сз226892 0.3 101111
29 июня, ср
ср2900:00+22сз3460100 0.1 101183
03:00+22сз335365 0.1 101150
06:00+24ссз47675 0.0 1011497
09:00+29св66445 0.0 10111393
12:00+30св86440 0.0 10121872
15:00+28св87507 0.0 10121300
18:00+24всв7763100 0.0 1013908
21:00+20в3773100 0.0 1014191